Stevens Point, WI

12:06 AM CST on December 16, 2019 (GMT -0600)
Stevens Point Municipal

Weather History for KSTE - October, 2019

Change the Weather History Date:

Sunday, October 6, 2019

  Actual Average Record
Temperature  
Mean Temperature 52 °F -  
Max Temperature 62 °F 62 °F 86 °F (2007)
Min Temperature 43 °F 41 °F 27 °F (1952)
Degree Days  
Heating Degree Days 12    
Growing Degree Days 2 (Base 50)    
Moisture  
Dew Point 41 °F    
Average Humidity 67    
Maximum Humidity 99    
Minimum Humidity 37    
Precipitation  
Precipitation 0.00 in - - ()
Sea Level Pressure  
Sea Level Pressure 29.94 in    
Wind  
Wind Speed 12 mph (WSW)    
Max Wind Speed 22 mph    
Max Gust Speed 30 mph    
Visibility 10 miles    
Events      
Averages and records for this station are not official NWS values.
T = Trace of Precipitation, MM = Missing Value Source: NWS Daily Summary

Daily Weather History Graph

Daily Weather History Graph

Search for Another Location

Airport or City:

Astronomy

Oct. 06, 2019 Rise Set
Actual Time 7:01 AM CDT 6:29 PM CDT
Civil Twilight 6:32 AM CDT 6:59 PM CDT
Nautical Twilight 5:58 AM CDT 7:32 PM CDT
Astronomical Twilight 5:24 AM CDT 8:06 PM CDT
Moon 3:26 PM CDT (10/6) No Moon Set
Length of Visible Light 12h 26m
Length of Day
11h 28m
First Quarter, 60% of the Moon is Illuminated
Oct 6
First Quarter
Oct 13
Full
Oct 21
Last Quarter
Oct 27
New
Nov 4
First Quarter

Hourly Weather History & Observations

Time (CDT) Temp. Windchill Dew Point Humidity Pressure Visibility Wind Dir Wind Speed Gust Speed Precip Events Conditions
12:15 AM 50.0 °F - 47.3 °F 90% 29.78 in 10.0 mi WSW 16.1 mph 20.7 mph N/A   Scattered Clouds
12:35 AM 49.6 °F - 46.0 °F 87% 29.78 in 10.0 mi WSW 11.5 mph 21.9 mph N/A   Mostly Cloudy
12:55 AM 49.1 °F - 45.3 °F 87% 29.79 in 10.0 mi WSW 13.8 mph 24.2 mph N/A   Mostly Cloudy
1:15 AM 48.4 °F - 44.1 °F 85% 29.81 in 10.0 mi WSW 15.0 mph 19.6 mph N/A   Scattered Clouds
1:35 AM 48.4 °F - 43.7 °F 84% 29.83 in 10.0 mi WSW 12.7 mph 19.6 mph N/A   Mostly Cloudy
1:55 AM 48.4 °F - 43.9 °F 84% 29.84 in 10.0 mi WSW 11.5 mph 16.1 mph N/A   Overcast
2:15 AM 48.2 °F - 44.6 °F 87% 29.84 in 10.0 mi WSW 9.2 mph - N/A   Overcast
2:35 AM 47.8 °F - 44.2 °F 87% 29.85 in 10.0 mi WSW 11.5 mph 16.1 mph N/A   Overcast
2:55 AM 47.5 °F - 44.2 °F 89% 29.85 in 10.0 mi WSW 9.2 mph 16.1 mph N/A   Overcast
3:15 AM 47.3 °F - 43.9 °F 88% 29.85 in 10.0 mi WSW 9.2 mph - N/A   Overcast
3:35 AM 46.6 °F - 43.7 °F 90% 29.86 in 10.0 mi WSW 10.4 mph - N/A   Mostly Cloudy
3:55 AM 45.9 °F 41.7 °F 43.9 °F 93% 29.86 in 10.0 mi WSW 8.1 mph - N/A   Clear
4:15 AM 45.1 °F 40.3 °F 43.9 °F 95% 29.86 in 10.0 mi WSW 9.2 mph - N/A   Clear
4:55 AM 44.4 °F 41.2 °F 44.2 °F 99% 29.87 in 10.0 mi SW 5.8 mph - N/A   Clear
5:15 AM 44.4 °F 40.5 °F 44.2 °F 99% 29.89 in 10.0 mi SW 6.9 mph - N/A   Scattered Clouds
5:35 AM 45.0 °F 38.9 °F 43.9 °F 96% 29.89 in 10.0 mi WSW 12.7 mph 18.4 mph N/A   Scattered Clouds
5:55 AM 45.3 °F 39.7 °F 43.5 °F 93% 29.89 in 10.0 mi WSW 11.5 mph 18.4 mph N/A   Clear
6:15 AM 44.6 °F 40.7 °F 43.7 °F 97% 29.90 in 10.0 mi SW 6.9 mph - N/A   Clear
6:35 AM 44.2 °F 40.3 °F 43.5 °F 97% 29.90 in 10.0 mi SW 6.9 mph - N/A   Clear
6:55 AM 43.5 °F 40.1 °F 43.2 °F 99% 29.91 in 10.0 mi SW 5.8 mph - N/A   Clear
7:15 AM 44.1 °F 40.1 °F 43.3 °F 97% 29.91 in 10.0 mi SW 6.9 mph - N/A   Clear
7:35 AM 44.6 °F 39.7 °F 43.7 °F 97% 29.93 in 10.0 mi SW 9.2 mph - N/A   Clear
7:55 AM 44.8 °F 41.0 °F 43.7 °F 96% 29.93 in 10.0 mi SW 6.9 mph - N/A   Clear
8:15 AM 45.7 °F 41.0 °F 43.7 °F 93% 29.93 in 10.0 mi WSW 9.2 mph - N/A   Clear
8:35 AM 46.6 °F - 43.5 °F 89% 29.93 in 10.0 mi WSW 9.2 mph - N/A   Clear
8:55 AM 46.9 °F - 43.0 °F 86% 29.94 in 10.0 mi WSW 6.9 mph - N/A   Clear
9:15 AM 48.7 °F - 43.0 °F 80% 29.95 in 10.0 mi WSW 8.1 mph - N/A   Clear
9:35 AM 50.0 °F - 43.2 °F 77% 29.96 in 10.0 mi SW 11.5 mph - N/A   Clear
9:55 AM 52.0 °F - 43.0 °F 71% 29.96 in 10.0 mi SW 13.8 mph - N/A   Clear
10:15 AM 52.5 °F - 43.2 °F 70% 29.96 in 10.0 mi WSW 15.0 mph 21.9 mph N/A   Clear
10:35 AM 54.0 °F - 42.6 °F 65% 29.96 in 10.0 mi WSW 11.5 mph 18.4 mph N/A   Clear
10:55 AM 55.4 °F - 41.9 °F 60% 29.96 in 10.0 mi WSW 15.0 mph - N/A   Clear
11:15 AM 57.4 °F - 41.5 °F 56% 29.96 in 10.0 mi WSW 11.5 mph - N/A   Clear
11:35 AM 58.5 °F - 40.3 °F 51% 29.97 in 10.0 mi WSW 12.7 mph 25.3 mph N/A   Clear
11:55 AM 59.4 °F - 39.6 °F 48% 29.97 in 10.0 mi WSW 17.3 mph 25.3 mph N/A   Clear
12:15 PM 59.9 °F - 38.5 °F 45% 29.97 in 10.0 mi West 16.1 mph 27.6 mph N/A   Clear
12:35 PM 61.0 °F - 38.7 °F 44% 29.97 in 10.0 mi WSW 19.6 mph 26.5 mph N/A   Clear
12:55 PM 60.8 °F - 37.4 °F 42% 29.97 in 10.0 mi WSW 19.6 mph 28.8 mph N/A   Clear
1:15 PM 61.5 °F - 36.5 °F 39% 29.96 in 10.0 mi WSW 19.6 mph 27.6 mph N/A   Scattered Clouds
1:35 PM 61.9 °F - 36.5 °F 39% 29.96 in 10.0 mi WSW 21.9 mph 28.8 mph N/A   Clear
1:55 PM 61.7 °F - 35.4 °F 38% 29.96 in 10.0 mi WSW 11.5 mph 25.3 mph N/A   Clear
2:15 PM 61.7 °F - 34.9 °F 37% 29.96 in 10.0 mi WSW 17.3 mph 29.9 mph N/A   Clear
2:35 PM 62.6 °F - 36.5 °F 38% 29.96 in 10.0 mi West 12.7 mph 24.2 mph N/A   Scattered Clouds
2:55 PM 62.4 °F - 36.5 °F 38% 29.95 in 10.0 mi West 16.1 mph 24.2 mph N/A   Scattered Clouds
3:15 PM 62.2 °F - 36.0 °F 38% 29.95 in 10.0 mi West 18.4 mph 25.3 mph N/A   Scattered Clouds
3:35 PM 62.1 °F - 35.2 °F 37% 29.95 in 10.0 mi WSW 19.6 mph 29.9 mph N/A   Scattered Clouds
3:55 PM 61.9 °F - 36.0 °F 38% 29.95 in 10.0 mi West 15.0 mph 26.5 mph N/A   Clear
4:15 PM 61.9 °F - 35.6 °F 38% 29.94 in 10.0 mi WSW 15.0 mph 24.2 mph N/A   Scattered Clouds
4:35 PM 60.8 °F - 35.8 °F 39% 29.95 in 10.0 mi WSW 12.7 mph 25.3 mph N/A   Overcast
4:55 PM 60.8 °F - 36.5 °F 40% 29.95 in 10.0 mi WSW 11.5 mph 20.7 mph N/A   Mostly Cloudy
5:15 PM 60.8 °F - 36.9 °F 41% 29.95 in 10.0 mi WSW 15.0 mph 20.7 mph N/A   Scattered Clouds
5:35 PM 59.7 °F - 37.4 °F 43% 29.96 in 10.0 mi WSW 12.7 mph - N/A   Scattered Clouds
5:55 PM 59.4 °F - 37.8 °F 45% 29.96 in 10.0 mi WSW 11.5 mph 19.6 mph N/A   Mostly Cloudy
6:15 PM 58.3 °F - 38.1 °F 47% 29.97 in 10.0 mi WSW 11.5 mph - N/A   Mostly Cloudy
6:35 PM 58.1 °F - 38.3 °F 48% 29.97 in 10.0 mi WSW 9.2 mph - N/A   Overcast
6:55 PM 57.2 °F - 38.5 °F 50% 29.97 in 10.0 mi WSW 8.1 mph - N/A   Overcast
7:15 PM 56.5 °F - 39.2 °F 52% 29.97 in 10.0 mi SW 5.8 mph - N/A   Overcast
7:35 PM 55.4 °F - 39.0 °F 54% 29.97 in 10.0 mi SW 6.9 mph - N/A   Overcast
7:55 PM 55.4 °F - 39.2 °F 54% 29.98 in 10.0 mi SW 6.9 mph - N/A   Overcast
8:15 PM 55.0 °F - 39.2 °F 55% 29.98 in 10.0 mi WSW 9.2 mph - N/A   Mostly Cloudy
8:35 PM 54.9 °F - 39.2 °F 56% 29.99 in 10.0 mi WSW 10.4 mph 16.1 mph N/A   Scattered Clouds
8:55 PM 54.5 °F - 39.2 °F 56% 30.00 in 10.0 mi WSW 8.1 mph - N/A   Clear
9:15 PM 53.2 °F - 39.4 °F 59% 30.00 in 10.0 mi WSW 8.1 mph - N/A   Clear
9:35 PM 52.0 °F - 39.7 °F 63% 30.01 in 10.0 mi SW 6.9 mph - N/A   Clear
9:55 PM 50.9 °F - 39.9 °F 66% 30.01 in 10.0 mi SW 5.8 mph - N/A   Clear
10:15 PM 48.0 °F - 39.6 °F 73% 30.01 in 10.0 mi SW 4.6 mph - N/A   Clear
10:35 PM 47.5 °F - 40.1 °F 76% 30.02 in 10.0 mi SW 4.6 mph - N/A   Clear
10:55 PM 49.1 °F - 40.1 °F 71% 30.02 in 10.0 mi WSW 5.8 mph - N/A   Clear
11:15 PM 48.9 °F - 40.1 °F 72% 30.02 in 10.0 mi WSW 6.9 mph - N/A   Clear
11:35 PM 49.1 °F - 40.1 °F 71% 30.03 in 10.0 mi WSW 5.8 mph - N/A   Clear
11:55 PM 49.6 °F - 39.7 °F 69% 30.03 in 10.0 mi WSW 5.8 mph - N/A   Scattered Clouds